| time (UTC) | temp F | wind direction | speed MPH | gust MPH | rain 1hr in | rain 24hr in | rain mn in | humidity % | barometer mb |
| 20260506091206 | 73 | 203 | 4.0 | 0.0 | 0.00 | 0.00 | 0.00 | 34 | 1010.1 |
| 20260506090204 | 73 | 0 | 1.0 | 0.0 | 0.00 | 0.00 | 0.00 | 36 | 1010.0 |
| 20260506085705 | 73 | 45 | 5.0 | 0.0 | 0.00 | 0.00 | 0.00 | 38 | 1010.1 |
| 20260506085203 | 72 | 90 | 2.0 | 0.0 | 0.00 | 0.00 | 0.00 | 41 | 1010.1 |
| 20260506084704 | 71 | 180 | 2.0 | 0.0 | 0.00 | 0.00 | 0.00 | 41 | 1010.1 |
| 20260506084203 | 72 | 45 | 4.0 | 0.0 | 0.00 | 0.00 | 0.00 | 41 | 1010.0 |
| 20260506083704 | 71 | 0 | 4.0 | 0.0 | 0.00 | 0.00 | 0.00 | 40 | 1010.1 |
| 20260506083204 | 72 | 135 | 4.0 | 0.0 | 0.00 | 0.00 | 0.00 | 40 | 1010.1 |
| 20260506082704 | 72 | 45 | 2.0 | 0.0 | 0.00 | 0.00 | 0.00 | 41 | 1010.1 |
| 20260506082203 | 72 | 135 | 2.0 | 0.0 | 0.00 | 0.00 | 0.00 | 41 | 1010.0 |
| 20260506081704 | 71 | 225 | 2.0 | 0.0 | 0.00 | 0.00 | 0.00 | 41 | 1010.1 |
| 20260506081204 | 71 | 90 | 4.0 | 0.0 | 0.00 | 0.00 | 0.00 | 40 | 1010.0 |
| 20260506080704 | 71 | 0 | 4.0 | 0.0 | 0.00 | 0.00 | 0.00 | 38 | 1010.0 |
| 20260506080204 | 71 | 90 | 3.0 | 0.0 | 0.00 | 0.00 | 0.00 | 38 | 1010.0 |
| 20260506073205 | 72 | 315 | 1.0 | 0.0 | 0.00 | 0.00 | 0.00 | 34 | 1010.1 |
| 20260506072204 | 71 | 45 | 2.0 | 0.0 | 0.00 | 0.00 | 0.00 | 33 | 1010.1 |
| 20260506071704 | 71 | 315 | 2.0 | 0.0 | 0.00 | 0.00 | 0.00 | 33 | 1010.0 |
| 20260506071203 | 71 | 45 | 3.0 | 0.0 | 0.00 | 0.00 | 0.00 | 33 | 1010.1 |
| 20260506070704 | 69 | 68 | 2.0 | 0.0 | 0.00 | 0.00 | 0.00 | 35 | 1010.0 |
| 20260506070204 | 68 | 45 | 2.0 | 0.0 | 0.00 | 0.00 | 0.00 | 34 | 1009.9 |
| 20260506062204 | 68 | 45 | 2.0 | 0.0 | 0.00 | 0.00 | 0.00 | 42 | 1010.3 |
| 20260506061704 | 68 | 45 | 1.0 | 0.0 | 0.00 | 0.00 | 0.00 | 43 | 1010.3 |
| 20260506061204 | 67 | 0 | 0.0 | 0.0 | 0.00 | 0.00 | 0.00 | 42 | 1010.4 |
| 20260506060704 | 67 | 180 | 1.0 | 0.0 | 0.00 | 0.00 | 0.00 | 42 | 1010.3 |
| 20260506060203 | 67 | 135 | 2.0 | 0.0 | 0.00 | 0.00 | 0.00 | 42 | 1010.3 |
| 20260506051204 | 68 | 180 | 0.0 | 0.0 | 0.00 | 0.00 | 0.00 | 37 | 1010.1 |
| 20260506050704 | 67 | 135 | 0.0 | 0.0 | 0.00 | 0.00 | 0.00 | 39 | 1010.0 |
| 20260506050205 | 65 | 180 | 0.0 | 0.0 | 0.00 | 0.00 | 0.00 | 40 | 1010.0 |
| 20260506044704 | 63 | 315 | 0.0 | 0.0 | 0.00 | 0.00 | 0.00 | 52 | 1010.0 |
| 20260506044204 | 62 | 315 | 0.0 | 0.0 | 0.00 | 0.00 | 0.00 | 58 | 1010.0 |
| 20260506043704 | 58 | 225 | 1.0 | 0.0 | 0.00 | 0.00 | 0.00 | 61 | 1009.9 |
| 20260506042704 | 56 | 225 | 0.0 | 0.0 | 0.00 | 0.00 | 0.00 | 61 | 1009.8 |
| 20260506042204 | 55 | 225 | 0.0 | 0.0 | 0.00 | 0.00 | 0.00 | 61 | 1009.7 |
| 20260506041704 | 54 | 225 | 0.0 | 0.0 | 0.00 | 0.00 | 0.00 | 65 | 1009.7 |
| 20260506041204 | 53 | 225 | 0.0 | 0.0 | 0.00 | 0.00 | 0.00 | 65 | 1009.4 |
| 20260506040703 | 52 | 225 | 0.0 | 0.0 | 0.00 | 0.00 | 0.00 | 65 | 1009.5 |
| 20260506040204 | 51 | 225 | 2.0 | 0.0 | 0.00 | 0.00 | 0.00 | 65 | 1009.6 |
| 20260506034704 | 50 | 225 | 0.0 | 0.0 | 0.00 | 0.00 | 0.00 | 67 | 1009.4 |
| 20260506034204 | 49 | 225 | 1.0 | 0.0 | 0.00 | 0.00 | 0.00 | 67 | 1009.5 |
| 20260506033704 | 49 | 225 | 1.0 | 0.0 | 0.00 | 0.00 | 0.00 | 66 | 1009.2 |
| 20260506033204 | 49 | 225 | 2.0 | 0.0 | 0.00 | 0.00 | 0.00 | 63 | 1009.4 |
| 20260506032204 | 49 | 225 | 0.0 | 0.0 | 0.00 | 0.00 | 0.00 | 63 | 1009.3 |
| 20260506031704 | 50 | 270 | 0.0 | 0.0 | 0.00 | 0.00 | 0.04 | 62 | 1009.2 |
| 20260506031204 | 50 | 225 | 2.0 | 0.0 | 0.00 | 0.00 | 0.04 | 61 | 1009.3 |
| 20260506030704 | 50 | 270 | 1.0 | 0.0 | 0.00 | 0.00 | 0.04 | 61 | 1009.1 |
| 20260506030204 | 50 | 225 | 0.0 | 0.0 | 0.00 | 0.00 | 0.04 | 61 | 1009.1 |
| 20260506025705 | 51 | 270 | 2.0 | 0.0 | 0.00 | 0.00 | 0.04 | 61 | 1009.2 |
| 20260506025204 | 51 | 225 | 2.0 | 0.0 | 0.00 | 0.00 | 0.04 | 61 | 1009.0 |
| 20260506024704 | 51 | 225 | 1.0 | 0.0 | 0.00 | 0.00 | 0.04 | 62 | 1009.0 |
| 20260506023704 | 50 | 45 | 0.0 | 0.0 | 0.00 | 0.00 | 0.04 | 65 | 1009.1 |
| 20260506023204 | 49 | 225 | 1.0 | 0.0 | 0.00 | 0.00 | 0.04 | 67 | 1009.1 |
| 20260506022704 | 48 | 180 | 1.0 | 0.0 | 0.00 | 0.00 | 0.04 | 68 | 1009.1 |
| 20260506022204 | 48 | 225 | 1.0 | 0.0 | 0.00 | 0.00 | 0.04 | 68 | 1009.4 |
| 20260506021704 | 48 | 225 | 1.0 | 0.0 | 0.00 | 0.00 | 0.04 | 67 | 1009.2 |
| 20260506021204 | 48 | 225 | 1.0 | 0.0 | 0.00 | 0.00 | 0.04 | 67 | 1009.2 |
| 20260506020705 | 48 | 225 | 1.0 | 0.0 | 0.00 | 0.00 | 0.04 | 67 | 1009.3 |
| 20260506020204 | 48 | 225 | 1.0 | 0.0 | 0.00 | 0.00 | 0.04 | 67 | 1009.1 |
| 20260506015704 | 48 | 270 | 2.0 | 0.0 | 0.00 | 0.00 | 0.04 | 68 | 1009.1 |
| 20260506015204 | 48 | 270 | 2.0 | 0.0 | 0.00 | 0.00 | 0.04 | 67 | 1009.3 |
| 20260506014704 | 48 | 248 | 1.0 | 0.0 | 0.00 | 0.00 | 0.04 | 67 | 1009.1 |
| 20260506013704 | 48 | 225 | 1.0 | 0.0 | 0.00 | 0.00 | 0.04 | 68 | 1009.2 |
| 20260506013204 | 48 | 225 | 1.0 | 0.0 | 0.00 | 0.00 | 0.04 | 68 | 1009.1 |
| 20260506012704 | 48 | 225 | 2.0 | 0.0 | 0.00 | 0.00 | 0.04 | 67 | 1009.2 |
| 20260506012204 | 48 | 270 | 1.0 | 0.0 | 0.00 | 0.00 | 0.04 | 68 | 1009.3 |
| 20260506011704 | 48 | 225 | 1.0 | 0.0 | 0.00 | 0.00 | 0.04 | 68 | 1009.2 |
| 20260506011204 | 48 | 225 | 0.0 | 0.0 | 0.00 | 0.00 | 0.04 | 68 | 1009.2 |
| 20260506010704 | 48 | 225 | 0.0 | 0.0 | 0.00 | 0.00 | 0.04 | 67 | 1009.2 |
| 20260506010204 | 48 | 225 | 2.0 | 0.0 | 0.00 | 0.00 | 0.04 | 68 | 1009.2 |
| 20260506005704 | 48 | 225 | 2.0 | 0.0 | 0.00 | 0.00 | 0.04 | 69 | 1009.2 |
| 20260506005204 | 48 | 270 | 2.0 | 0.0 | 0.00 | 0.00 | 0.04 | 70 | 1009.1 |
| 20260506004704 | 48 | 270 | 2.0 | 0.0 | 0.00 | 0.00 | 0.04 | 70 | 1009.1 |
| 20260506004204 | 48 | 225 | 1.0 | 0.0 | 0.00 | 0.00 | 0.04 | 70 | 1009.0 |
| 20260506003704 | 48 | 270 | 2.0 | 0.0 | 0.00 | 0.00 | 0.04 | 71 | 1009.1 |
| 20260506003204 | 47 | 225 | 2.0 | 0.0 | 0.00 | 0.00 | 0.04 | 71 | 1009.1 |
| 20260506002704 | 48 | 270 | 2.0 | 0.0 | 0.00 | 0.00 | 0.04 | 70 | 1009.2 |
| 20260506002204 | 48 | 225 | 2.0 | 0.0 | 0.00 | 0.00 | 0.04 | 70 | 1009.0 |
| 20260506001704 | 48 | 270 | 1.0 | 0.0 | 0.00 | 0.00 | 0.04 | 70 | 1008.9 |
| 20260506001204 | 48 | 270 | 2.0 | 0.0 | 0.00 | 0.00 | 0.04 | 70 | 1009.0 |
| 20260506000704 | 48 | 270 | 2.0 | 0.0 | 0.00 | 0.00 | 0.04 | 70 | 1009.0 |
| 20260506000205 | 48 | 270 | 1.0 | 0.0 | 0.00 | 0.00 | 0.04 | 69 | 1008.9 |
| 20260505235704 | 49 | 225 | 2.0 | 0.0 | 0.00 | 0.00 | 0.04 | 68 | 1009.0 |
| 20260505235204 | 49 | 225 | 1.0 | 0.0 | 0.00 | 0.00 | 0.04 | 68 | 1009.2 |
| 20260505234704 | 49 | 225 | 1.0 | 0.0 | 0.00 | 0.00 | 0.04 | 68 | 1009.0 |
| 20260505233703 | 49 | 225 | 0.0 | 0.0 | 0.00 | 0.00 | 0.00 | 68 | 1009.3 |
| 20260505233204 | 49 | 225 | 1.0 | 0.0 | 0.00 | 0.00 | 0.00 | 67 | 1009.2 |
| 20260505232704 | 49 | 225 | 2.0 | 0.0 | 0.00 | 0.00 | 0.00 | 66 | 1009.2 |
| 20260505231704 | 50 | 225 | 2.0 | 0.0 | 0.00 | 0.00 | 0.00 | 67 | 1009.1 |
| 20260505231204 | 50 | 270 | 2.0 | 0.0 | 0.00 | 0.00 | 0.00 | 66 | 1009.2 |
| 20260505230704 | 50 | 225 | 2.0 | 0.0 | 0.00 | 0.00 | 0.00 | 66 | 1009.2 |
| 20260505230204 | 51 | 270 | 2.0 | 0.0 | 0.00 | 0.00 | 0.00 | 67 | 1009.2 |
| 20260505225704 | 51 | 225 | 1.0 | 0.0 | 0.00 | 0.00 | 0.00 | 68 | 1009.3 |
| 20260505225203 | 50 | 225 | 0.0 | 0.0 | 0.00 | 0.00 | 0.00 | 70 | 1009.3 |
| 20260505224704 | 50 | 225 | 2.0 | 0.0 | 0.00 | 0.00 | 0.00 | 70 | 1009.3 |
| 20260505224203 | 50 | 225 | 2.0 | 0.0 | 0.00 | 0.00 | 0.00 | 70 | 1009.3 |
| 20260505223703 | 50 | 225 | 1.0 | 0.0 | 0.00 | 0.00 | 0.00 | 70 | 1009.2 |
| 20260505223204 | 50 | 225 | 1.0 | 0.0 | 0.00 | 0.00 | 0.00 | 70 | 1009.4 |
| 20260505222704 | 50 | 225 | 2.0 | 0.0 | 0.00 | 0.00 | 0.00 | 70 | 1009.3 |
| 20260505222204 | 50 | 225 | 2.0 | 0.0 | 0.00 | 0.00 | 0.00 | 70 | 1009.2 |
| 20260505221204 | 49 | 225 | 1.0 | 0.0 | 0.00 | 0.00 | 0.04 | 71 | 1009.1 |
| 20260505220704 | 50 | 270 | 2.0 | 0.0 | 0.00 | 0.00 | 0.04 | 70 | 1009.1 |
| 20260505220204 | 50 | 270 | 2.0 | 0.0 | 0.00 | 0.00 | 0.04 | 70 | 1009.2 |
| 20260505215704 | 50 | 225 | 2.0 | 0.0 | 0.00 | 0.00 | 0.04 | 70 | 1009.1 |
| 20260505215204 | 50 | 225 | 1.0 | 0.0 | 0.00 | 0.00 | 0.04 | 70 | 1009.1 |
| 20260505214704 | 50 | 270 | 2.0 | 0.0 | 0.00 | 0.00 | 0.04 | 70 | 1009.0 |
| 20260505214204 | 50 | 225 | 0.0 | 0.0 | 0.00 | 0.00 | 0.04 | 70 | 1009.0 |
| 20260505213704 | 50 | 225 | 1.0 | 0.0 | 0.00 | 0.00 | 0.04 | 70 | 1009.1 |
| 20260505213204 | 51 | 225 | 1.0 | 0.0 | 0.00 | 0.00 | 0.04 | 70 | 1009.1 |
| 20260505212703 | 51 | 225 | 2.0 | 0.0 | 0.00 | 0.00 | 0.04 | 70 | 1009.1 |
| 20260505212204 | 51 | 225 | 1.0 | 0.0 | 0.00 | 0.00 | 0.04 | 70 | 1009.0 |
| 20260505211704 | 51 | 270 | 1.0 | 0.0 | 0.00 | 0.00 | 0.04 | 70 | 1009.0 |
| 20260505211204 | 51 | 270 | 2.0 | 0.0 | 0.00 | 0.00 | 0.04 | 70 | 1009.1 |
| 20260505210703 | 51 | 180 | 1.0 | 0.0 | 0.00 | 0.00 | 0.04 | 70 | 1009.2 |
| 20260505210204 | 51 | 225 | 1.0 | 0.0 | 0.00 | 0.00 | 0.04 | 70 | 1009.2 |
| 20260505205204 | 51 | 225 | 1.0 | 0.0 | 0.00 | 0.00 | 0.04 | 70 | 1009.1 |
| 20260505204704 | 51 | 270 | 2.0 | 0.0 | 0.00 | 0.00 | 0.04 | 70 | 1009.1 |
| 20260505204205 | 52 | 225 | 0.0 | 0.0 | 0.00 | 0.00 | 0.04 | 69 | 1009.2 |
| 20260505203704 | 52 | 270 | 2.0 | 0.0 | 0.00 | 0.00 | 0.04 | 68 | 1009.2 |
| 20260505203204 | 52 | 225 | 0.0 | 0.0 | 0.00 | 0.00 | 0.04 | 67 | 1009.0 |
| 20260505202704 | 53 | 270 | 2.0 | 0.0 | 0.00 | 0.00 | 0.04 | 66 | 1009.1 |
| 20260505201703 | 53 | 225 | 0.0 | 0.0 | 0.00 | 0.00 | 0.04 | 64 | 1009.0 |
| 20260505201204 | 54 | 225 | 0.0 | 0.0 | 0.00 | 0.00 | 0.04 | 64 | 1009.0 |
| 20260505200704 | 54 | 135 | 0.0 | 0.0 | 0.00 | 0.00 | 0.04 | 65 | 1009.0 |
| 20260505200204 | 54 | 225 | 2.0 | 0.0 | 0.00 | 0.00 | 0.04 | 67 | 1008.8 |
| 20260505195704 | 53 | 225 | 2.0 | 0.0 | 0.00 | 0.00 | 0.04 | 67 | 1008.7 |
| 20260505195204 | 53 | 23 | 1.0 | 0.0 | 0.00 | 0.00 | 0.04 | 66 | 1008.8 |
| 20260505194704 | 54 | 45 | 1.0 | 0.0 | 0.00 | 0.00 | 0.04 | 67 | 1008.7 |
| 20260505194204 | 53 | 180 | 0.0 | 0.0 | 0.00 | 0.00 | 0.04 | 66 | 1008.7 |
| 20260505193704 | 54 | 315 | 1.0 | 0.0 | 0.00 | 0.00 | 0.04 | 65 | 1008.6 |
| 20260505193204 | 54 | 270 | 0.0 | 0.0 | 0.00 | 0.00 | 0.04 | 64 | 1008.7 |
| 20260505192704 | 55 | 180 | 1.0 | 0.0 | 0.00 | 0.00 | 0.04 | 60 | 1008.5 |
| 20260505192204 | 55 | 270 | 0.0 | 0.0 | 0.00 | 0.00 | 0.04 | 59 | 1008.6 |
| 20260505191704 | 56 | 0 | 0.0 | 0.0 | 0.00 | 0.00 | 0.04 | 58 | 1008.5 |
| 20260505191204 | 56 | 45 | 0.0 | 0.0 | 0.00 | 0.00 | 0.04 | 59 | 1008.4 |
| 20260505190704 | 56 | 135 | 0.0 | 0.0 | 0.00 | 0.00 | 0.04 | 59 | 1008.4 |
| 20260505190204 | 56 | 180 | 0.0 | 0.0 | 0.00 | 0.00 | 0.04 | 58 | 1008.2 |
| 20260505184704 | 56 | 270 | 2.0 | 0.0 | 0.00 | 0.00 | 0.04 | 52 | 1008.0 |
| 20260505184204 | 57 | 225 | 0.0 | 0.0 | 0.00 | 0.00 | 0.04 | 51 | 1008.0 |
| 20260505183704 | 57 | 180 | 2.0 | 0.0 | 0.00 | 0.00 | 0.04 | 50 | 1008.0 |
| 20260505183204 | 58 | 270 | 2.0 | 0.0 | 0.00 | 0.00 | 0.04 | 49 | 1008.0 |
| 20260505182704 | 58 | 90 | 0.0 | 0.0 | 0.00 | 0.00 | 0.04 | 46 | 1008.0 |
| 20260505182204 | 58 | 315 | 0.0 | 0.0 | 0.00 | 0.00 | 0.04 | 46 | 1008.1 |
| 20260505181704 | 59 | 135 | 0.0 | 0.0 | 0.00 | 0.00 | 0.04 | 45 | 1007.8 |
| 20260505181204 | 59 | 45 | 0.0 | 0.0 | 0.00 | 0.00 | 0.04 | 45 | 1008.0 |
| 20260505180704 | 60 | 180 | 2.0 | 0.0 | 0.00 | 0.00 | 0.04 | 44 | 1007.7 |
| 20260505180204 | 60 | 180 | 2.0 | 0.0 | 0.00 | 0.00 | 0.04 | 42 | 1007.7 |
| 20260505175704 | 60 | 180 | 1.0 | 0.0 | 0.00 | 0.00 | 0.04 | 42 | 1007.7 |
| 20260505175204 | 61 | 0 | 2.0 | 0.0 | 0.00 | 0.00 | 0.04 | 41 | 1007.8 |
| 20260505174704 | 62 | 0 | 2.0 | 0.0 | 0.00 | 0.00 | 0.04 | 40 | 1007.7 |
| 20260505174203 | 62 | 90 | 3.0 | 0.0 | 0.00 | 0.00 | 0.04 | 38 | 1007.5 |
| 20260505173203 | 63 | 90 | 1.0 | 0.0 | 0.00 | 0.00 | 0.04 | 40 | 1007.5 |
| 20260505172704 | 64 | 45 | 2.0 | 0.0 | 0.00 | 0.00 | 0.04 | 35 | 1007.6 |
| 20260505172204 | 64 | 45 | 2.0 | 0.0 | 0.00 | 0.00 | 0.04 | 34 | 1007.4 |
| 20260505171704 | 65 | 135 | 1.0 | 0.0 | 0.00 | 0.00 | 0.04 | 32 | 1007.4 |
| 20260505171204 | 66 | 90 | 2.0 | 0.0 | 0.00 | 0.00 | 0.04 | 31 | 1007.6 |
| 20260505170704 | 67 | 180 | 1.0 | 0.0 | 0.00 | 0.00 | 0.04 | 30 | 1007.4 |
| 20260505170204 | 67 | 158 | 4.0 | 0.0 | 0.00 | 0.00 | 0.04 | 30 | 1007.2 |
| 20260505165704 | 67 | 225 | 4.0 | 0.0 | 0.00 | 0.00 | 0.04 | 31 | 1007.1 |
| 20260505165204 | 67 | 180 | 3.0 | 0.0 | 0.00 | 0.00 | 0.04 | 33 | 1007.1 |
| 20260505164703 | 67 | 180 | 4.0 | 0.0 | 0.00 | 0.00 | 0.04 | 35 | 1007.1 |
| 20260505163704 | 68 | 225 | 5.0 | 0.0 | 0.00 | 0.00 | 0.04 | 40 | 1007.0 |
| 20260505163204 | 69 | 180 | 5.0 | 0.0 | 0.00 | 0.00 | 0.04 | 38 | 1007.0 |
| 20260505162704 | 70 | 248 | 3.0 | 0.0 | 0.00 | 0.00 | 0.04 | 34 | 1007.1 |
| 20260505162205 | 71 | 225 | 3.0 | 0.0 | 0.00 | 0.00 | 0.04 | 34 | 1007.0 |
| 20260505161704 | 71 | 225 | 3.0 | 0.0 | 0.00 | 0.00 | 0.04 | 35 | 1007.1 |
| 20260505161204 | 71 | 225 | 4.0 | 0.0 | 0.00 | 0.00 | 0.04 | 35 | 1006.9 |
| 20260505160704 | 71 | 225 | 5.0 | 0.0 | 0.00 | 0.00 | 0.04 | 35 | 1007.1 |
| 20260505153204 | 72 | 315 | 10.0 | 0.0 | 0.00 | 0.00 | 0.04 | 34 | 1007.1 |
| 20260505152704 | 72 | 225 | 8.0 | 0.0 | 0.00 | 0.00 | 0.04 | 33 | 1007.3 |
| 20260505152204 | 72 | 180 | 6.0 | 0.0 | 0.00 | 0.00 | 0.04 | 34 | 1007.2 |
| 20260505151704 | 73 | 225 | 9.0 | 0.0 | 0.00 | 0.00 | 0.04 | 31 | 1007.3 |
| 20260505151204 | 73 | 180 | 10.0 | 0.0 | 0.00 | 0.00 | 0.04 | 31 | 1007.2 |
| 20260505150204 | 74 | 225 | 7.0 | 0.0 | 0.00 | 0.00 | 0.04 | 23 | 1007.4 |
| 20260505140204 | 74 | 270 | 3.0 | 0.0 | 0.00 | 0.00 | 0.04 | 22 | 1007.2 |
| 20260505124704 | 75 | 315 | 5.0 | 0.0 | 0.00 | 0.00 | 0.04 | 25 | 1007.8 |
| 20260505124204 | 75 | 315 | 6.0 | 0.0 | 0.00 | 0.00 | 0.04 | 23 | 1007.9 |
| 20260505123704 | 76 | 0 | 6.0 | 0.0 | 0.00 | 0.00 | 0.04 | 24 | 1007.8 |
| 20260505123204 | 77 | 315 | 2.0 | 0.0 | 0.00 | 0.00 | 0.04 | 22 | 1007.8 |
| 20260505122704 | 76 | 225 | 2.0 | 0.0 | 0.00 | 0.00 | 0.04 | 22 | 1007.9 |
| 20260505122204 | 76 | 270 | 4.0 | 0.0 | 0.00 | 0.00 | 0.04 | 23 | 1008.1 |
| 20260505121704 | 75 | 315 | 4.0 | 0.0 | 0.00 | 0.00 | 0.04 | 25 | 1008.1 |
| 20260505121204 | 75 | 293 | 5.0 | 0.0 | 0.00 | 0.00 | 0.04 | 25 | 1008.1 |
| 20260505120704 | 75 | 270 | 7.0 | 0.0 | 0.00 | 0.00 | 0.04 | 24 | 1008.2 |
| 20260505120204 | 75 | 315 | 5.0 | 0.0 | 0.00 | 0.00 | 0.04 | 24 | 1008.2 |
| 20260505115704 | 75 | 315 | 5.0 | 0.0 | 0.00 | 0.00 | 0.04 | 23 | 1008.4 |
| 20260505115203 | 76 | 0 | 11.0 | 0.0 | 0.00 | 0.00 | 0.04 | 23 | 1008.4 |
| 20260505114704 | 76 | 315 | 7.0 | 0.0 | 0.00 | 0.00 | 0.04 | 23 | 1008.6 |
| 20260505114204 | 76 | 270 | 4.0 | 0.0 | 0.00 | 0.00 | 0.04 | 24 | 1008.5 |
| 20260505113704 | 75 | 315 | 2.0 | 0.0 | 0.00 | 0.00 | 0.04 | 25 | 1008.5 |
| 20260505113204 | 76 | 225 | 5.0 | 0.0 | 0.00 | 0.00 | 0.04 | 23 | 1008.5 |
| 20260505112703 | 75 | 180 | 4.0 | 0.0 | 0.00 | 0.00 | 0.04 | 23 | 1008.6 |
| 20260505112204 | 75 | 315 | 7.0 | 0.0 | 0.00 | 0.00 | 0.04 | 24 | 1008.6 |
| 20260505111704 | 75 | 270 | 2.0 | 0.0 | 0.00 | 0.00 | 0.04 | 25 | 1008.7 |
| 20260505111204 | 75 | 315 | 3.0 | 0.0 | 0.00 | 0.00 | 0.04 | 26 | 1008.8 |
| 20260505110705 | 74 | 0 | 6.0 | 0.0 | 0.00 | 0.00 | 0.04 | 29 | 1008.8 |
| 20260505102203 | 74 | 315 | 6.0 | 0.0 | 0.00 | 0.00 | 0.04 | 25 | 1009.2 |
| 20260505101704 | 73 | 23 | 4.0 | 0.0 | 0.00 | 0.00 | 0.04 | 30 | 1009.3 |
| 20260505100704 | 75 | 270 | 4.0 | 0.0 | 0.00 | 0.00 | 0.04 | 26 | 1009.1 |
| 20260505100204 | 74 | 225 | 4.0 | 0.0 | 0.00 | 0.00 | 0.04 | 27 | 1009.3 |
| 20260505095704 | 74 | 225 | 6.0 | 0.0 | 0.00 | 0.00 | 0.04 | 30 | 1009.4 |
| 20260505095204 | 74 | 45 | 4.0 | 0.0 | 0.00 | 0.00 | 0.04 | 25 | 1009.4 |
| 20260505094704 | 74 | 270 | 4.0 | 0.0 | 0.00 | 0.00 | 0.04 | 27 | 1009.6 |
| 20260505094204 | 72 | 0 | 8.0 | 0.0 | 0.00 | 0.00 | 0.04 | 28 | 1009.6 |
| 20260505093704 | 73 | 315 | 7.0 | 0.0 | 0.00 | 0.00 | 0.04 | 26 | 1009.4 |
| 20260505093204 | 73 | 270 | 5.0 | 0.0 | 0.00 | 0.00 | 0.04 | 26 | 1009.6 |
| 20260505092704 | 72 | 315 | 5.0 | 0.0 | 0.00 | 0.00 | 0.04 | 30 | 1009.7 |
| 20260505092204 | 73 | 248 | 4.0 | 0.0 | 0.00 | 0.00 | 0.04 | 29 | 1009.6 |
| 20260505091704 | 72 | 270 | 9.0 | 0.0 | 0.00 | 0.00 | 0.04 | 31 | 1009.7 |